�������l�o���
Date,Time,MP-1(��Sv/h),MP-2(��Sv/h),MP-3(��Sv/h),MP-4(��Sv/h),MP-5(��Sv/h),MP-6(��Sv/h),MP-7(��Sv/h),MP-8(��Sv/h),����,����(m/s),���J
2017/12/07,00:00,0.877,1.440,0.911,1.713,1.165,0.487,0.871,0.837,�k��,6.7,��
2017/12/07,00:10,0.873,1.441,0.912,1.713,1.164,0.489,0.869,0.837,�k��,6.9,��
2017/12/07,00:20,0.873,1.442,0.912,1.714,1.166,0.488,0.872,0.837,�k��,6.6,��
2017/12/07,00:30,0.874,1.442,0.913,1.716,1.164,0.487,0.868,0.835,�k��,6.6,��
2017/12/07,00:40,0.871,1.441,0.912,1.714,1.162,0.490,0.870,0.836,�k��,7.2,��
2017/12/07,00:50,0.872,1.442,0.912,1.716,1.165,0.487,0.869,0.837,�k��,7.3,��
2017/12/07,01:00,0.875,1.441,0.912,1.716,1.165,0.490,0.871,0.836,�k��,7.4,��
2017/12/07,01:10,0.873,1.440,0.912,1.712,1.164,0.488,0.871,0.837,�k�k��,7.3,��
2017/12/07,01:20,0.873,1.440,0.912,1.712,1.163,0.489,0.869,0.836,�k��,6.7,��
2017/12/07,01:30,0.872,1.439,0.911,1.713,1.164,0.488,0.870,0.836,�k��,6.4,��
2017/12/07,01:40,0.873,1.438,0.912,1.714,1.165,0.488,0.871,0.836,�k��,5.8,��
2017/12/07,01:50,0.873,1.442,0.911,1.715,1.166,0.489,0.870,0.835,�k��,5.8,��
2017/12/07,02:00,0.871,1.440,0.913,1.714,1.162,0.488,0.870,0.835,�k��,5.9,��
2017/12/07,02:10,0.873,1.440,0.912,1.714,1.164,0.489,0.869,0.835,�k��,5.7,��
2017/12/07,02:20,0.871,1.441,0.911,1.714,1.163,0.487,0.870,0.835,�k��,5.9,��
2017/12/07,02:30,0.872,1.441,0.912,1.714,1.163,0.488,0.871,0.835,�k��,6.0,��
2017/12/07,02:40,0.872,1.442,0.912,1.710,1.161,0.487,0.871,0.835,�k��,5.8,��
2017/12/07,02:50,0.873,1.439,0.914,1.713,1.164,0.487,0.872,0.838,�k��,6.2,��
2017/12/07,03:00,0.872,1.438,0.912,1.713,1.165,0.488,0.869,0.837,�k��,6.0,��
2017/12/07,03:10,0.873,1.439,0.913,1.712,1.162,0.487,0.871,0.836,�k��,6.0,��
2017/12/07,03:20,0.871,1.439,0.911,1.712,1.162,0.488,0.870,0.837,�k��,5.6,��
2017/12/07,03:30,0.871,1.442,0.911,1.713,1.163,0.488,0.870,0.837,�k��,5.6,��
2017/12/07,03:40,0.872,1.438,0.912,1.714,1.165,0.487,0.871,0.838,�k��,5.3,��
2017/12/07,03:50,0.872,1.439,0.911,1.712,1.161,0.488,0.870,0.837,�k��,5.9,��
2017/12/07,04:00,0.871,1.440,0.912,1.715,1.162,0.488,0.870,0.838,�k��,5.3,��
2017/12/07,04:10,0.872,1.438,0.912,1.714,1.161,0.488,0.869,0.838,�k��,5.0,��
2017/12/07,04:20,0.870,1.439,0.913,1.711,1.164,0.488,0.870,0.836,�k��,5.5,��
2017/12/07,04:30,0.871,1.438,0.912,1.712,1.162,0.488,0.870,0.838,�k��,5.5,��
2017/12/07,04:40,0.871,1.437,0.912,1.714,1.161,0.488,0.871,0.836,�k��,5.7,��
2017/12/07,04:50,0.873,1.440,0.913,1.713,1.163,0.486,0.869,0.834,�k��,5.6,��
2017/12/07,05:00,0.871,1.437,0.911,1.714,1.162,0.486,0.871,0.835,�k��,6.1,��
2017/12/07,05:10,0.872,1.440,0.910,1.712,1.160,0.486,0.871,0.836,�k��,6.3,��
2017/12/07,05:20,0.871,1.438,0.911,1.714,1.162,0.486,0.870,0.837,�k��,5.8,��
2017/12/07,05:30,0.872,1.438,0.913,1.713,1.161,0.488,0.870,0.836,�k��,6.5,��
2017/12/07,05:40,0.872,1.437,0.912,1.714,1.163,0.487,0.870,0.835,�k��,6.5,��
2017/12/07,05:50,0.872,1.439,0.912,1.714,1.166,0.487,0.871,0.838,�k��,6.3,��
2017/12/07,06:00,0.871,1.441,0.912,1.716,1.164,0.486,0.870,0.835,�k��,6.3,��
2017/12/07,06:10,0.874,1.440,0.912,1.713,1.163,0.484,0.871,0.836,�k�k��,5.8,��
2017/12/07,06:20,0.871,1.438,0.910,1.714,1.160,0.488,0.869,0.835,�k�k��,5.9,��
2017/12/07,06:30,0.872,1.436,0.911,1.712,1.162,0.488,0.870,0.836,�k�k��,6.2,��
2017/12/07,06:40,0.870,1.439,0.912,1.714,1.160,0.486,0.871,0.837,�k��,6.0,��
2017/12/07,06:50,0.870,1.437,0.912,1.712,1.161,0.485,0.871,0.839,�k��,5.9,��
2017/12/07,07:00,0.871,1.436,0.913,1.715,1.163,0.485,0.870,0.836,�k��,5.5,��
2017/12/07,07:10,0.871,1.439,0.911,1.713,1.163,0.487,0.870,0.837,�k��,5.5,��
2017/12/07,07:20,0.872,1.439,0.913,1.714,1.163,0.486,0.872,0.837,�k��,5.2,��
2017/12/07,07:30,0.871,1.440,0.912,1.715,1.162,0.486,0.871,0.836,�k��,5.5,��
2017/12/07,07:40,0.870,1.442,0.913,1.713,1.162,0.486,0.871,0.837,�k��,6.0,��
2017/12/07,07:50,0.873,1.440,0.914,1.711,1.161,0.486,0.871,0.836,�k��,6.9,��
2017/12/07,08:00,0.873,1.440,0.913,1.713,1.162,0.487,0.870,0.837,�k��,7.5,��
2017/12/07,08:10,0.872,1.441,0.912,1.715,1.161,0.486,0.872,0.837,�k�k��,7.2,��
2017/12/07,08:20,0.873,1.439,0.912,1.713,1.164,0.487,0.871,0.837,�k�k��,7.3,��
2017/12/07,08:30,0.873,1.442,0.914,1.715,1.166,0.488,0.872,0.838,�k�k��,6.6,��
2017/12/07,08:40,0.873,1.441,0.912,1.717,1.166,0.487,0.872,0.837,�k��,5.0,��
2017/12/07,08:50,0.875,1.441,0.911,1.717,1.164,0.488,0.873,0.837,�k��,4.3,��
2017/12/07,09:00,0.873,1.438,0.913,1.716,1.164,0.487,0.871,0.837,�k��,4.6,��
2017/12/07,09:10,0.873,1.443,0.913,1.711,1.164,0.489,0.872,0.836,�k��,4.1,��
2017/12/07,09:20,0.873,1.440,0.916,1.714,1.168,0.487,0.874,0.837,�k�k��,4.2,��
2017/12/07,09:30,0.874,1.437,0.915,1.718,1.166,0.489,0.873,0.836,�k��,3.8,��
2017/12/07,09:40,0.876,1.442,0.912,1.716,1.168,0.487,0.871,0.839,�k��,4.7,��
2017/12/07,09:50,0.876,1.441,0.914,1.719,1.166,0.489,0.875,0.833,�k�k��,3.8,��
2017/12/07,10:00,0.877,1.444,0.913,1.713,1.168,0.488,0.873,0.835,�k�k��,4.0,��
2017/12/07,10:10,0.875,1.441,0.914,1.716,1.166,0.489,0.874,0.833,�k�k��,2.6,��
2017/12/07,10:20,0.876,1.438,0.914,1.716,1.170,0.488,0.873,0.835,�k�k��,2.6,��
2017/12/07,10:30,0.875,1.443,0.914,1.717,1.170,0.490,0.873,0.835,�k�k��,3.1,��
2017/12/07,10:40,0.877,1.439,0.913,1.715,1.166,0.490,0.872,0.834,�k,2.0,��
2017/12/07,10:50,0.873,1.440,0.905,1.717,1.168,0.491,0.873,0.836,�k�k��,2.3,��
2017/12/07,11:00,0.877,1.439,0.917,1.699,1.168,0.489,0.871,0.835,�k�k��,3.6,��
2017/12/07,11:10,0.877,1.439,0.917,1.715,1.168,0.489,0.872,0.832,�k,3.3,��
2017/12/07,11:20,0.877,1.440,0.917,1.718,1.158,0.490,0.871,0.832,�k,3.3,��
2017/12/07,11:30,0.876,1.438,0.915,1.717,1.169,0.484,0.872,0.835,�k,2.5,��
2017/12/07,11:40,0.876,1.438,0.916,1.721,1.171,0.485,0.872,0.833,�k�k��,2.6,��
2017/12/07,11:50,0.878,1.436,0.916,1.717,1.170,0.489,0.873,0.836,�k,2.3,��
2017/12/07,12:00,0.878,1.441,0.918,1.716,1.168,0.490,0.872,0.835,�k,2.0,��
2017/12/07,12:10,0.879,1.443,0.916,1.717,1.171,0.490,0.874,0.836,�k,3.1,��
2017/12/07,12:20,0.876,1.443,0.917,1.719,1.168,0.491,0.873,0.840,�k,2.3,��
2017/12/07,12:30,0.878,1.440,0.916,1.718,1.170,0.490,0.870,0.839,�k��,1.2,��
2017/12/07,12:40,0.878,1.442,0.917,1.721,1.168,0.490,0.872,0.840,�k�k��,1.9,��
2017/12/07,12:50,0.878,1.449,0.915,1.719,1.172,0.490,0.872,0.840,�k��,2.2,��
2017/12/07,13:00,0.878,1.445,0.916,1.723,1.172,0.491,0.873,0.841,�k�k��,1.7,��
2017/12/07,13:10,0.880,1.443,0.916,1.719,1.170,0.490,0.872,0.839,���k��,1.5,��
2017/12/07,13:20,0.877,1.445,0.917,1.723,1.173,0.489,0.872,0.839,�k��,1.1,��
2017/12/07,13:30,0.879,1.442,0.917,1.718,1.171,0.489,0.872,0.839,�k�k��,1.5,��
2017/12/07,13:40,0.881,1.442,0.917,1.719,1.169,0.489,0.872,0.840,�k,0.6,��
2017/12/07,13:50,0.880,1.443,0.917,1.718,1.171,0.489,0.874,0.840,�k,0.9,��
2017/12/07,14:00,0.879,1.442,0.917,1.720,1.173,0.491,0.874,0.840,���k��,0.6,��
2017/12/07,14:10,0.879,1.444,0.916,1.716,1.171,0.489,0.875,0.840,���k��,0.9,��
2017/12/07,14:20,0.880,1.444,0.918,1.721,1.170,0.491,0.873,0.839,���k��,1.2,��
2017/12/07,14:30,0.881,1.443,0.916,1.718,1.173,0.492,0.875,0.840,��,1.2,��
2017/12/07,14:40,0.882,1.445,0.917,1.720,1.174,0.490,0.871,0.840,��,1.2,��
2017/12/07,14:50,0.883,1.445,0.918,1.717,1.170,0.491,0.875,0.840,-,-,��
2017/12/07,15:00,0.883,1.444,0.916,1.720,1.171,0.489,0.874,0.839,-,-,��
2017/12/07,15:10,0.879,1.445,0.919,1.719,1.172,0.490,0.878,0.838,-,-,��
2017/12/07,15:20,0.880,1.447,0.917,1.721,1.172,0.490,0.876,0.839,-,-,��
2017/12/07,15:30,0.876,1.448,0.917,1.720,1.172,0.491,0.875,0.839,-,-,��
2017/12/07,15:40,0.880,1.447,0.918,1.720,1.171,0.491,0.875,0.838,-,-,��
2017/12/07,15:50,0.880,1.451,0.917,1.722,1.172,0.490,0.876,0.839,-,-,��
2017/12/07,16:00,0.881,1.453,0.917,1.724,1.173,0.491,0.876,0.838,-,-,��
2017/12/07,16:10,0.881,1.448,0.917,1.722,1.170,0.491,0.876,0.839,-,-,��
2017/12/07,16:20,0.878,1.447,0.915,1.721,1.171,0.491,0.873,0.840,-,-,��
2017/12/07,16:30,0.879,1.447,0.918,1.719,1.173,0.490,0.874,0.839,-,-,��
2017/12/07,16:40,0.878,1.448,0.917,1.720,1.169,0.490,0.875,0.840,���쐼,1.2,��
2017/12/07,16:50,0.880,1.448,0.917,1.720,1.171,0.490,0.874,0.839,���쐼,1.4,��
2017/12/07,17:00,0.880,1.445,0.918,1.721,1.169,0.490,0.874,0.838,���쐼,1.2,��
2017/12/07,17:10,0.878,1.447,0.914,1.723,1.170,0.490,0.873,0.840,���쐼,1.4,��
2017/12/07,17:20,0.877,1.447,0.916,1.720,1.169,0.491,0.872,0.838,���쐼,1.5,��
2017/12/07,17:30,0.878,1.447,0.918,1.717,1.171,0.492,0.874,0.840,���쐼,1.7,��
2017/12/07,17:40,0.877,1.449,0.919,1.718,1.171,0.491,0.873,0.839,���쐼,1.9,��
2017/12/07,17:50,0.879,1.447,0.916,1.717,1.169,0.491,0.874,0.840,�쐼,1.7,��
2017/12/07,18:00,0.878,1.448,0.916,1.721,1.171,0.491,0.875,0.840,�쐼,1.7,��
2017/12/07,18:10,0.877,1.446,0.916,1.718,1.171,0.490,0.874,0.839,��쐼,1.5,��
2017/12/07,18:20,0.878,1.446,0.915,1.720,1.169,0.490,0.872,0.840,��,1.2,��
2017/12/07,18:30,0.880,1.450,0.917,1.719,1.169,0.490,0.873,0.839,��쓌,1.2,��
2017/12/07,18:40,0.878,1.447,0.917,1.720,1.173,0.490,0.872,0.837,��쓌,0.9,��
2017/12/07,18:50,0.879,1.447,0.916,1.718,1.169,0.491,0.872,0.839,��쓌,1.2,��
2017/12/07,19:00,0.879,1.443,0.915,1.718,1.170,0.491,0.872,0.839,��,0.9,��
2017/12/07,19:10,0.879,1.449,0.916,1.719,1.173,0.490,0.872,0.841,��쓌,1.9,��
2017/12/07,19:20,0.880,1.447,0.915,1.718,1.172,0.488,0.872,0.839,��,1.4,��
2017/12/07,19:30,0.879,1.446,0.917,1.719,1.169,0.491,0.872,0.840,��쐼,0.9,��
2017/12/07,19:40,0.879,1.446,0.914,1.717,1.170,0.491,0.875,0.841,�쐼,1.2,��
2017/12/07,19:50,0.880,1.448,0.917,1.717,1.170,0.493,0.872,0.839,���쐼,1.5,��
2017/12/07,20:00,0.879,1.447,0.917,1.720,1.169,0.492,0.872,0.840,�쐼,0.9,��
2017/12/07,20:10,0.879,1.446,0.917,1.719,1.170,0.489,0.874,0.839,�쐼,1.2,��
2017/12/07,20:20,0.878,1.446,0.916,1.718,1.171,0.491,0.873,0.839,���쐼,1.4,��
2017/12/07,20:30,0.879,1.444,0.916,1.717,1.170,0.493,0.873,0.840,�쐼,1.2,��
2017/12/07,20:40,0.880,1.445,0.916,1.720,1.171,0.492,0.873,0.838,��쐼,0.9,��
2017/12/07,20:50,0.880,1.448,0.915,1.717,1.170,0.489,0.874,0.840,��,1.4,��
2017/12/07,21:00,0.880,1.445,0.916,1.719,1.172,0.490,0.872,0.838,��쐼,1.5,��
2017/12/07,21:10,0.879,1.445,0.916,1.720,1.169,0.491,0.873,0.839,��,1.4,��
2017/12/07,21:20,0.880,1.446,0.918,1.719,1.173,0.491,0.872,0.842,���쐼,1.9,��
2017/12/07,21:30,0.881,1.447,0.915,1.718,1.170,0.492,0.871,0.840,���쐼,3.8,��
2017/12/07,21:40,0.879,1.447,0.918,1.721,1.170,0.491,0.874,0.839,�쐼,4.8,��
2017/12/07,21:50,0.878,1.449,0.918,1.719,1.169,0.493,0.875,0.838,�쐼,4.8,��
2017/12/07,22:00,0.879,1.446,0.916,1.719,1.172,0.493,0.872,0.838,���쐼,4.0,��
2017/12/07,22:10,0.878,1.445,0.917,1.719,1.170,0.492,0.872,0.838,���쐼,4.6,��
2017/12/07,22:20,0.881,1.445,0.917,1.716,1.172,0.493,0.873,0.839,�쐼,4.8,��
2017/12/07,22:30,0.880,1.449,0.918,1.719,1.171,0.491,0.872,0.837,�쐼,5.1,��
2017/12/07,22:40,0.879,1.447,0.915,1.719,1.169,0.490,0.873,0.840,�쐼,5.4,��
2017/12/07,22:50,0.880,1.448,0.917,1.720,1.170,0.490,0.875,0.839,�쐼,5.2,��
2017/12/07,23:00,0.880,1.446,0.917,1.720,1.168,0.493,0.875,0.841,�쐼,5.4,��
2017/12/07,23:10,0.879,1.449,0.916,1.718,1.169,0.490,0.874,0.839,�쐼,3.9,��
2017/12/07,23:20,0.880,1.447,0.917,1.722,1.170,0.491,0.875,0.838,�쐼,2.5,��
2017/12/07,23:30,0.878,1.447,0.917,1.719,1.168,0.492,0.873,0.839,�쐼,1.5,��
2017/12/07,23:40,0.881,1.444,0.916,1.718,1.169,0.492,0.874,0.839,��쓌,0.6,��
2017/12/07,23:50,0.880,1.444,0.916,1.718,1.169,0.492,0.874,0.841,��쐼,0.9,��
